Simultaneous Nadir Overpasses (SNOs) Predictions

Prediction of SNOs between LANDSAT-8 and NOAA-19 Satellite Orbit:

Table of predicted SNOs for the next 14.0 days since TLE Epoch: 10/30/2015
Index Date (LANDSAT-8) Time (LANDSAT-8) Lat,Lon (LANDSAT-8) SZA (LANDSAT-8 ) Date (NOAA-19) Time (NOAA-19) Lat,Lon (NOAA-19) SZA (NOAA-19 ) Distance(km) Time Diff (sec)
1 10/30/2015 20:20:48 -73.77, 57.47 92.34 10/30/2015 20:20:01 -73.78, 57.50 92.34 1.24 47
2 10/30/2015 21:10:15 73.69,-135.06 87.60 10/30/2015 21:11:07 73.71,-135.11 87.62 2.46 52
3 11/02/2015 01:54:32 73.73, 153.96 88.35 11/02/2015 01:54:22 73.76, 154.01 88.37 2.82 10
4 11/02/2015 02:44:01 -73.66, -38.56 91.72 11/02/2015 02:45:14 -73.59, -38.33 91.77 10.67 73
5 11/04/2015 06:38:48 73.82, 83.07 89.13 11/04/2015 06:37:37 73.81, 83.10 89.11 1.46 71
6 11/04/2015 07:28:17 -73.75,-109.44 90.94 11/04/2015 07:28:31 -73.73,-109.43 90.96 2.39 14
7 11/06/2015 12:12:33 -73.83, 179.66 90.19 11/06/2015 12:11:47 -73.82, 179.57 90.20 2.79 46
8 11/06/2015 13:02:01 73.69, -13.00 89.68 11/06/2015 13:02:51 73.71, -12.91 89.71 3.15 50
9 11/08/2015 17:46:17 73.76, -83.92 90.40 11/08/2015 17:46:06 73.78, -83.86 90.42 2.85 11
10 11/08/2015 18:35:46 -73.70, 83.57 89.66 11/08/2015 18:37:00 -73.66, 83.70 89.68 5.64 74
11 11/10/2015 22:30:32 73.87,-154.74 91.14 11/10/2015 22:29:21 73.86,-154.82 91.12 2.87 71
12 11/10/2015 23:20:02 -73.76, 12.64 88.98 11/10/2015 23:20:16 -73.77, 12.67 88.96 1.32 14
13 11/13/2015 04:04:18 -73.81, -58.31 88.32 11/13/2015 04:03:31 -73.83, -58.25 88.31 2.70 47
14 11/13/2015 04:53:45 73.72, 109.13 91.60 11/13/2015 04:54:34 73.73, 109.22 91.62 3.19 49




NCC Satellite Simultaneous Nadir Overpasses (SNOs) Prediction Service
